Погода в Ноябрьске

Погода в Ноябрьске : погода сейчас, прогноз погоды и архив. Всё, что Вы хотите узнать о погоде в Ноябрьске!

Поиск расширенной информации на нашем сайте:

Другие новости

Новости СМИ2

Главная страница сайта

Новости сайта

03.07.2017

Напоминаем, что на нашем специализированном сайте Метеоцентр.Азия вы можете получить высокодетализированные автоматические прогнозы погоды по пунктам России, СНГ и мира в авиационном формате (включающие направление и скорость ветра, видимость, явления погоды, количество и форму облачности, нижнюю и верхнюю границу облачности).


Погода в Ноябрьске - сегодня

Время (UTC), дата Ветер
(°,м/с) 
Видим.   Явления Облачность Т
(°С)
Тd
(°С)
f(%) Тe
(°С)
Pmin
(гПа)
dP
(гПа)
Po
(мм)
O2
(г/м3)
Тmin Tmax R s Состояние
почвы
21 11.12.17 230 (ЮЗ) 4000 м  дымка [диам. изморози 3 мм]  6/4 200 м верхняя 
[St|Ci fib]
-23 -25.2 82 -23  1034  0.4  762  337           
00 12.12.17 230 (ЮЗ) 20000 м  [диам. изморози 3 мм]  6/3 200 м верхняя 
[St|Ci fib]
-20.5 -22.4 85 -21  1033.3  -0.5  761  333           
03 12.12.17 220 (ЮЗ) 4000 м  слаб. снег [диам. изморози 3 мм]  10/4 300 м средняя 
[Sc|As op]
-17.8 -19.4 87 -18  1033.4  0.3  762  330  -26    0.0  26  равномерный
сухой снег
100% 
06 12.12.17 220 (ЮЗ) 20000 м  {снег}  10/0 средняя, верхняя 
[Ac trans|Ci fib]
-15.5 -16.8 90 -18  1032.6  -0.7  761  327           
09 12.12.17 210 (ЮЗ) 20000 м  [диам. изморози 2 мм]  6/0 средняя, верхняя 
[Ac trans|Ci fib]
-18.3 -19.9 87 -21  1032.5  -0.2  761  330           
12 12.12.17 210 (ЮЗ) 20000 м  [диам. изморози 2 мм]  4/0 средняя 
[Ac trans]
-20.3 -22.1 85 -23  1032.9  0.2  761  333           
15 12.12.17 190 (Ю) 20000 м  [диам. изморози 2 мм]  4/0 средняя 
[Ac trans]
-20.2 -22 86 -23  1032.8  0.1  761  333    -15  0.0     
18 12.12.17 200 (Ю) 10 км  снежные кристаллы [диам. изморози 2 мм]  10/4 200 м средняя, верхняя 
[Frnb|Ac trans|Cs]
-20.9 -22.8 85 -21  1033.2  0.4  761  334           
21 12.12.17 190 (Ю) 20000 м  {снег} [диам. изморози 2 мм]  8/0 средняя, верхняя 
[Ac trans|Ci fib]
-22.6 -24.7 83 -23  1033.7  0.3  762  336           
00 13.12.17 200 (Ю) 4000 м  слаб. снег [диам. изморози 2 мм]  8/4 1000 м средняя 
[Sc|Ac trans]
-22.2 -24.2 84 -23  1034.3  0.6  762  336           
03 13.12.17 200 (Ю) 4000 м  слаб. снег [диам. изморози 2 мм]  10/4 600 м средняя 
[Sc|As op]
-18.6 -20.2 87 -19  1034.1  0.1  762  331  -22.7    0.0  26  равномерный
сухой снег
100% 
06 13.12.17 210 (ЮЗ) 20000 м  {снег} [диам. изморози 2 мм]  8/0 средняя 
[Ac trans]
-17.5 -19 88 -20  1034.7  0.7  763  330           
09 13.12.17 200 (Ю) 4000 м  дымка [диам. изморози 2 мм]  10/4 200 м средняя 
[St|Ac trans]
-20.1 -21.9 86 -26  1035.5  0.5  763  334           
12 13.12.17 200 (Ю) 20000 м  [диам. изморози 2 мм]  10/4 200 м средняя 
[St|Ac und]
-22.3 -24.4 83 -27  1035.4  -0.3  763  336           
15 13.12.17 200 (Ю) 20000 м  {снег} [диам. изморози 2 мм]  10/6 180 м верхняя 
[St|Cs]
-22 -24 84 -28  1035.2  0.1  763  336    -17.4  0.0     
18 13.12.17 200 (Ю) 20000 м  {снег} [диам. изморози 2 мм]  8/0 средняя, верхняя 
[Ac trans|Ci fib]
-21.1 -23 85 -27  1034.4  -0.7  762  335           
21 13.12.17 190 (Ю) 10 км  снежные кристаллы [диам. изморози 2 мм]  10/5 150 м верхняя 
[Frnb|Cs]
-20.9 -22.8 85 -27  1033.3  -1  761  334           
00 14.12.17 200 (Ю) 20000 м  в посл. час снег [диам. изморози 3 мм]  10/5 180 м средняя 
[St|As op]
-19.6 -21.3 86 -25  1032.4  -0.8  761  332           
03 14.12.17 190 (Ю) 4000 м  слаб. снег [диам. изморози 3 мм]  10/6 180 м средняя 
[Frnb|As op]
-15 -16.2 91 -20  1030.9  -1.1  760  325  -22    0.2     
06 14.12.17 190 (Ю) 4000 м  слаб. снег  10/6 180 м средняя 
[Frnb|As op]
-14.7 -15.9 91 -20  1029.3  -1.5  759  325           
09 14.12.17 190 (Ю) 6{10}  4000 м  метель{снег} [диам. изморози 3 мм]  10/6 180 м средняя 
[Frnb|As op]
-16.1 -18 85 -23  1027.5  -1.9  757  326           
12 14.12.17 180 (Ю) 5-10{15}  4000 м  метель{снег} [диам. изморози 2 мм]  10/6 300 м средняя 
[Sc|Ac und]
-12.9 -14.5 88 -18  1025.2  -2.1  756  321           
15 14.12.17 210 (ЮЗ) 8-12{15}  1600 м  снег [диам. изморози 2 мм]  10/6 120 м средняя 
[Frnb|As op]
-10.6 -11.9 90 -17  1024.9  -0.1  756  318    -10.6  0.2     
18 14.12.17 210 (ЮЗ) 7-12{15}  20000 м  позёмок{снег} [диам. изморози 1 мм]  10/6 400 м средняя 
[Sc|As op]
-9.8 -10.6 94 -16  1025.6  0.7  756  317           
21 14.12.17 220 (ЮЗ) 5{12}  4000 м  слаб. снег [диам. изморози 1 мм]  10/6 240 м средняя 
[Frnb|As op]
-9.3 -9.9 95 -14  1026.5  0.9  757  317           
Время (UTC), дата Ветер
(°,м/с) 
Видим.   Явления Облачность Т
(°С)
Тd
(°С)
f(%) Тe
(°С)
Pmin
(гПа)
dP
(гПа)
Po
(мм)
O2
(г/м3)
Тmin Tmax R s Состояние
почвы

Для получения пояснительной информации подведите курсор к названию столбца.

ПОГОДА в Ноябрьске - архив

Всё, что Вы хотите узнать о погоде в Ноябрьске - удобно и подробно!

Выберите нужную дату (начиная с 1 января 2015* года) и нажмите кнопку "Найти".
Будут отображены архивные сводки погоды по пункту Ноябрьск, начиная с указанной даты.


Отображать данные в формате CSV (для использования в таблицах Excel)


Внимание! Наш архив погоды предназначен исключительно для личного некоммерческого использования в познавательных целях. Если Вам необходимы официальные справки о состоянии погоды (для производственных, юридических, коммерческих и т.п. целей), обращайтесь в органы Росгидромета.

*Примечание: данная дата относится к архиву по метеостанциям СССР (Россия, СНГ, Балтия).
Архив по метеостанциям Зарубежной Европы и Азии (кроме Китая) хранится 10 дней, по другим регионам земного шара (Китай, Африка, Америка, Австралия, Океания) - 1 день.

Ноябрьск - район местоположения метеостанции


Название, широта, долгота, высота метеостанции:
Ноябрьск 63.2°ш. 75.4°д. 120 м над ур. моря [Российская Федерация]

Дополнительная информация

В oтличие oт бoльшинства пoгoдных сайтoв мы публикуем пoдрoбную метеoинфoрмацию в детальнoм прoфессиoнальнoм фoрмате.

Характеристики температуры и влажнoсти вoздуха измеряются на высoте 2 м в тени вдали oт зданий и деревьев.
Скoрoсть ветра измеряется на высoте 10 м (на урoвне рoста челoвека скoрoсть ветра ниже в 1.5-2 раза). Если метеoстанция нахoдится в гoрoде или в лесу, тo скoрoсть ветра занижена на 2-4 м/с пo сравнению с oткрытым местoм. Скoрoсть ветра над акватoриями крупных рек и oзёр, а также на вершинах хoлмoв на 2-5 м/с выше, чем в oбычных услoвиях.
Атмoсфернoе давление в разных тoчках местнoсти мoжет значительнo oтличаться oт давления на метеoстанции, в зависимoсти oт услoвий рельефа (при пoдъёме на 10 м давление пoнижается примернo на 1 мм рт.ст.).